Newport News, VA

4:11 AM EDT on March 24, 2017 (GMT -0400)
Newport News-Williamsburg International

Weather History for KPHF - April, 2014

Change the Weather History Date:

Sunday, April 6, 2014

  Actual Average Record
Temperature  
Mean Temperature 48 °F -  
Max Temperature 57 °F 62 °F 86 °F (2005)
Min Temperature 42 °F 43 °F 27 °F (2007)
Degree Days  
Heating Degree Days 16    
Moisture  
Dew Point 31 °F    
Average Humidity 50    
Maximum Humidity 66    
Minimum Humidity 34    
Precipitation  
Precipitation 0.00 in - - ()
Sea Level Pressure  
Sea Level Pressure 30.21 in    
Wind  
Wind Speed 6 mph (ENE)    
Max Wind Speed 14 mph    
Max Gust Speed 18 mph    
Visibility 10 miles    
Events      
Averages and records for this station are not official NWS values.
T = Trace of Precipitation, MM = Missing Value Source: NWS Daily Summary

Daily Weather History Graph

Daily Weather History Graph

Search for Another Location

Airport or City:

Trip Planner

Search our weather history database for the weather conditions in past years. The results will help you decide how hot, cold, wet, or windy it might be!

Date:

Astronomy

Apr. 06, 2014 Rise Set
Actual Time 6:44 AM EDT 7:32 PM EDT
Civil Twilight 6:17 AM EDT 7:59 PM EDT
Nautical Twilight 5:46 AM EDT 8:30 PM EDT
Astronomical Twilight 5:14 AM EDT 9:02 PM EDT
Moon 11:47 AM EDT (4/6) 1:22 AM EDT (4/6)
Length of Visible Light 13h 41m
Length of Day
12h 48m
Waxing Crescent, 43% of the Moon is Illuminated
Apr 6
Waxing Crescent
Apr 7
First Quarter
Apr 15
Full
Apr 22
Last Quarter
Apr 29
New

Hourly Weather History & Observations

Time (EDT) Temp. Windchill Dew Point Humidity Pressure Visibility Wind Dir Wind Speed Gust Speed Precip Events Conditions
12:54 AM 50.0 °F - 30.9 °F 48% 30.14 in 10.0 mi East 3.5 mph - N/A   Clear
1:54 AM 48.0 °F - 36.0 °F 63% 30.16 in 10.0 mi NE 4.6 mph - N/A   Clear
2:54 AM 48.0 °F - 34.0 °F 58% 30.17 in 10.0 mi NNE 3.5 mph - N/A   Clear
3:54 AM 45.0 °F 41.8 °F 34.0 °F 65% 30.17 in 10.0 mi NNE 5.8 mph - N/A   Clear
4:54 AM 45.0 °F 41.8 °F 28.9 °F 53% 30.19 in 10.0 mi NNE 5.8 mph - N/A   Clear
5:54 AM 44.1 °F 40.8 °F 28.9 °F 55% 30.20 in 10.0 mi North 5.8 mph - N/A   Clear
6:54 AM 42.1 °F 39.2 °F 28.9 °F 60% 30.22 in 10.0 mi North 4.6 mph - N/A   Clear
7:54 AM 46.9 °F - 32.0 °F 56% 30.24 in 10.0 mi North 5.8 mph - N/A   Clear
8:54 AM 50.0 °F - 32.0 °F 50% 30.25 in 10.0 mi ENE 13.8 mph - N/A   Clear
9:54 AM 52.0 °F - 32.0 °F 47% 30.24 in 10.0 mi NE 12.7 mph - N/A   Clear
10:54 AM 53.1 °F - 32.0 °F 45% 30.27 in 10.0 mi East 11.5 mph 18.4 mph N/A   Clear
11:54 AM 54.0 °F - 32.0 °F 43% 30.26 in 10.0 mi ENE 8.1 mph - N/A   Clear
12:54 PM 54.0 °F - 28.9 °F 38% 30.25 in 10.0 mi ENE 10.4 mph - N/A   Clear
1:54 PM 54.0 °F - 28.0 °F 37% 30.24 in 10.0 mi East 9.2 mph - N/A   Clear
2:54 PM 55.0 °F - 30.0 °F 38% 30.22 in 10.0 mi East 9.2 mph - N/A   Clear
3:54 PM 55.0 °F - 27.0 °F 34% 30.20 in 10.0 mi East 9.2 mph - N/A   Clear
4:54 PM 54.0 °F - 30.9 °F 41% 30.19 in 10.0 mi East 10.4 mph - N/A   Clear
5:54 PM 52.0 °F - 30.0 °F 43% 30.19 in 10.0 mi ESE 11.5 mph - N/A   Clear
6:54 PM 50.0 °F - 27.0 °F 41% 30.22 in 10.0 mi ESE 8.1 mph - N/A   Clear
7:54 PM 46.9 °F - 27.0 °F 46% 30.22 in 10.0 mi East 5.8 mph - N/A   Clear
8:54 PM 45.0 °F 42.6 °F 30.0 °F 56% 30.22 in 10.0 mi East 4.6 mph - N/A   Clear
9:54 PM 45.0 °F 43.5 °F 32.0 °F 60% 30.21 in 10.0 mi East 3.5 mph - N/A   Clear
10:54 PM 46.0 °F 44.8 °F 35.1 °F 66% 30.20 in 10.0 mi East 3.5 mph - N/A   Scattered Clouds
11:54 PM 48.0 °F - 37.0 °F 66% 30.19 in 10.0 mi East 4.6 mph - N/A   Scattered Clouds